Location: Newark
(27.5000°N, 79.4000°E)
Time: 05:29:25
(UTC+00:00)

LightSail 2 - Visible Passes

Search period start: 06 December 2019 00:00
Search period end: 16 December 2019 00:00
Orbit: 695 x 731 km, 24.0° (Epoch: 05 December)

Date Brightness Start Highest point End Pass type
(mag) Time Alt. Az. Time Alt. Az. Time Alt. Az.
06 Dec 5.6 13:12:01 10° W 13:17:04 55° S 13:19:24 30° ESE visible
06 Dec 8.0 14:57:46 10° W 14:58:22 13° WSW 14:58:22 13° WSW visible
07 Dec 5.6 12:13:56 10° W 12:19:02 59° S 12:24:05 10° ESE visible
07 Dec 6.1 13:59:33 10° W 14:04:06 39° SSW 14:04:06 39° SSW visible
08 Dec 5.9 13:01:24 10° W 13:06:21 47° S 13:09:54 18° ESE visible
08 Dec 7.8 14:47:33 10° WSW 14:48:53 15° WSW 14:48:53 15° WSW visible
09 Dec 5.9 12:03:16 10° W 12:08:20 53° S 12:13:20 10° ESE visible
09 Dec 6.6 13:49:08 10° WSW 13:53:34 29° SSW 13:54:47 26° S visible
10 Dec 6.5 12:50:51 10° W 12:55:34 36° SSW 13:00:16 10° SE visible
10 Dec 7.7 14:37:52 10° WSW 14:39:46 14° SW 14:39:46 14° SW visible
11 Dec 7.3 13:39:00 10° WSW 13:42:42 20° SSW 13:45:52 12° SSE visible
12 Dec 7.1 12:40:28 10° WSW 12:44:44 26° SSW 12:48:58 10° SE visible
13 Dec 7.8 13:29:43 10° SW 13:31:47 12° SSW 13:33:49 10° S visible
14 Dec 7.7 12:30:29 10° WSW 12:33:48 17° SSW 12:37:06 10° SSE visible
